TimeEDT,TemperatureF,Dew PointF,Humidity,Sea Level PressureIn,VisibilityMPH,Wind Direction,Wind SpeedMPH,Gust SpeedMPH,PrecipitationIn,Events,Conditions,WindDirDegrees,DateUTC
12:15 AM,38.5,34.2,84,30.16,10.0,SW,3.5,-,N/A,,Clear,220,2012-10-07 04:15:00
12:35 AM,37.2,34.3,89,30.16,10.0,SW,4.6,-,N/A,,Clear,220,2012-10-07 04:35:00
12:55 AM,36.5,34.5,93,30.15,10.0,Calm,Calm,-,N/A,,Clear,0,2012-10-07 04:55:00
1:15 AM,36.5,34.9,94,30.15,10.0,Calm,Calm,-,N/A,,Clear,0,2012-10-07 05:15:00
1:35 AM,36.1,34.5,94,30.14,10.0,Calm,Calm,-,N/A,,Clear,0,2012-10-07 05:35:00
1:55 AM,35.2,33.6,94,30.14,10.0,Calm,Calm,-,N/A,,Clear,0,2012-10-07 05:55:00
2:15 AM,34.9,33.3,94,30.14,7.0,SW,4.6,-,N/A,,Clear,220,2012-10-07 06:15:00
2:35 AM,35.1,32.9,92,30.14,10.0,Calm,Calm,-,N/A,,Clear,0,2012-10-07 06:35:00
2:55 AM,35.4,32.5,89,30.14,10.0,Calm,Calm,-,N/A,,Clear,0,2012-10-07 06:55:00
3:15 AM,35.2,32.2,89,30.14,10.0,Calm,Calm,-,N/A,,Clear,0,2012-10-07 07:15:00
3:35 AM,35.2,32.2,89,30.14,10.0,WSW,3.5,-,N/A,,Clear,250,2012-10-07 07:35:00
3:55 AM,35.4,33.1,91,30.13,5.0,Calm,Calm,-,N/A,,Clear,0,2012-10-07 07:55:00
4:15 AM,36.5,34.3,92,30.13,10.0,West,4.6,-,N/A,,Clear,270,2012-10-07 08:15:00
4:35 AM,37.6,34.9,90,30.14,10.0,Calm,Calm,-,N/A,,Clear,0,2012-10-07 08:35:00
4:55 AM,37.9,34.3,87,30.13,10.0,WNW,3.5,-,N/A,,Scattered Clouds,290,2012-10-07 08:55:00
5:15 AM,38.3,33.8,84,30.14,10.0,WNW,4.6,-,N/A,,Mostly Cloudy,290,2012-10-07 09:15:00
5:35 AM,38.5,33.3,81,30.13,10.0,WNW,4.6,-,N/A,,Mostly Cloudy,300,2012-10-07 09:35:00
5:55 AM,38.3,32.9,81,30.13,10.0,NW,3.5,-,N/A,,Scattered Clouds,310,2012-10-07 09:55:00
6:15 AM,38.1,32.9,81,30.13,10.0,NW,3.5,-,N/A,,Scattered Clouds,320,2012-10-07 10:15:00
6:35 AM,38.1,32.5,80,30.13,10.0,WNW,4.6,-,N/A,,Scattered Clouds,300,2012-10-07 10:35:00
6:55 AM,37.6,32.4,81,30.13,7.0,NW,3.5,-,N/A,,Scattered Clouds,310,2012-10-07 10:55:00
7:15 AM,37.4,32.2,81,30.13,10.0,West,4.6,-,N/A,,Scattered Clouds,280,2012-10-07 11:15:00
7:35 AM,37.2,32.5,83,30.14,10.0,West,4.6,-,N/A,,Mostly Cloudy,280,2012-10-07 11:35:00
7:55 AM,37.4,32.2,81,30.13,10.0,WNW,4.6,-,N/A,,Scattered Clouds,290,2012-10-07 11:55:00
8:15 AM,37.2,32.4,83,30.14,10.0,West,3.5,-,N/A,,Scattered Clouds,260,2012-10-07 12:15:00
8:35 AM,36.9,32.9,86,30.14,10.0,West,3.5,-,N/A,,Scattered Clouds,270,2012-10-07 12:35:00
8:55 AM,37.4,32.9,84,30.14,7.0,West,3.5,-,N/A,,Scattered Clouds,280,2012-10-07 12:55:00
9:15 AM,37.8,32.9,83,30.15,10.0,West,5.8,-,N/A,,Scattered Clouds,270,2012-10-07 13:15:00
9:35 AM,38.7,32.9,80,30.16,10.0,West,6.9,-,N/A,,Scattered Clouds,280,2012-10-07 13:35:00
9:55 AM,39.2,33.1,79,30.16,10.0,West,8.1,-,N/A,,Scattered Clouds,280,2012-10-07 13:55:00
10:15 AM,39.9,32.9,76,30.16,10.0,West,9.2,-,N/A,,Scattered Clouds,280,2012-10-07 14:15:00
10:35 AM,40.3,32.9,75,30.17,7.0,West,6.9,-,N/A,,Mostly Cloudy,270,2012-10-07 14:35:00
11:15 AM,44.1,33.4,66,30.17,7.0,West,9.2,-,N/A,,Overcast,280,2012-10-07 15:15:00
11:35 AM,44.4,32.5,63,30.17,10.0,West,8.1,-,N/A,,Overcast,280,2012-10-07 15:35:00
11:55 AM,44.4,31.6,61,30.17,10.0,West,10.4,-,N/A,,Overcast,280,2012-10-07 15:55:00
12:15 PM,45.0,30.4,57,30.18,10.0,West,11.5,-,N/A,,Overcast,280,2012-10-07 16:15:00
12:35 PM,45.0,29.8,55,30.17,10.0,West,10.4,-,N/A,,Overcast,280,2012-10-07 16:35:00
12:55 PM,46.0,29.7,53,30.17,10.0,West,12.7,-,N/A,,Overcast,280,2012-10-07 16:55:00
1:15 PM,46.8,29.3,51,30.17,10.0,West,11.5,17.3,N/A,,Overcast,280,2012-10-07 17:15:00
1:35 PM,46.6,28.6,50,30.17,10.0,West,12.7,19.6,N/A,,Overcast,280,2012-10-07 17:35:00
1:55 PM,46.9,26.8,45,30.16,10.0,West,13.8,19.6,N/A,,Overcast,280,2012-10-07 17:55:00
2:15 PM,47.1,26.8,45,30.16,10.0,WNW,13.8,18.4,N/A,,Overcast,290,2012-10-07 18:15:00
2:35 PM,47.3,27.5,46,30.15,10.0,West,12.7,17.3,N/A,,Overcast,280,2012-10-07 18:35:00
2:55 PM,47.7,27.3,45,30.15,10.0,West,13.8,24.2,N/A,,Overcast,280,2012-10-07 18:55:00
3:15 PM,46.9,27.7,47,30.15,10.0,West,16.1,-,N/A,,Overcast,270,2012-10-07 19:15:00
3:55 PM,46.8,27.9,48,30.15,10.0,West,12.7,-,N/A,,Overcast,260,2012-10-07 19:55:00
4:15 PM,46.6,27.5,47,30.15,10.0,West,12.7,-,N/A,,Overcast,280,2012-10-07 20:15:00
4:35 PM,46.4,27.7,48,30.15,10.0,West,11.5,-,N/A,,Overcast,270,2012-10-07 20:35:00
4:55 PM,46.4,27.3,47,30.15,7.0,West,13.8,-,N/A,,Overcast,260,2012-10-07 20:55:00
5:15 PM,46.8,27.7,47,30.14,10.0,West,13.8,-,N/A,,Overcast,270,2012-10-07 21:15:00
5:35 PM,46.9,27.1,46,30.15,7.0,West,10.4,-,N/A,,Overcast,260,2012-10-07 21:35:00
5:55 PM,46.6,27.5,47,30.15,10.0,WSW,11.5,-,N/A,,Overcast,250,2012-10-07 21:55:00
6:15 PM,46.2,27.7,48,30.15,7.0,West,10.4,-,N/A,,Overcast,280,2012-10-07 22:15:00
6:35 PM,46.0,27.7,49,30.16,7.0,West,9.2,-,N/A,,Overcast,270,2012-10-07 22:35:00
7:15 PM,44.8,28.2,52,30.16,7.0,West,9.2,-,N/A,,Mostly Cloudy,260,2012-10-07 23:15:00
7:35 PM,43.2,29.3,58,30.16,10.0,WSW,6.9,-,N/A,,Mostly Cloudy,250,2012-10-07 23:35:00
8:15 PM,41.5,29.1,61,30.17,5.0,WSW,6.9,-,N/A,,Haze,240,2012-10-08 00:15:00
8:35 PM,41.2,29.5,63,30.17,7.0,WSW,5.8,-,N/A,,Overcast,240,2012-10-08 00:35:00
8:55 PM,40.3,30.0,67,30.17,7.0,WSW,8.1,-,N/A,,Overcast,240,2012-10-08 00:55:00
9:15 PM,40.8,29.3,64,30.18,10.0,WSW,6.9,-,N/A,,Overcast,250,2012-10-08 01:15:00
9:35 PM,40.8,29.8,65,30.19,4.0,West,6.9,-,N/A,,Haze,260,2012-10-08 01:35:00
10:15 PM,39.9,29.1,65,30.19,5.0,WSW,4.6,-,N/A,,Haze,250,2012-10-08 02:15:00
10:35 PM,37.6,29.1,72,30.18,10.0,WSW,3.5,-,N/A,,Scattered Clouds,240,2012-10-08 02:35:00
10:55 PM,35.4,29.3,78,30.18,10.0,Calm,Calm,-,N/A,,Clear,0,2012-10-08 02:55:00
11:15 PM,35.1,28.8,78,30.18,10.0,WSW,4.6,-,N/A,,Clear,240,2012-10-08 03:15:00
11:35 PM,33.6,28.6,82,30.19,7.0,Calm,Calm,-,N/A,,Clear,0,2012-10-08 03:35:00
11:55 PM,33.6,28.0,80,30.19,7.0,SW,4.6,-,N/A,Snow,Light Snow,220,2012-10-08 03:55:00